Wind_Speed
27 26 26 26 26 25 26 26 25 24 23 21 21 20 18 17 17 16 14 12 11 11 11 11 11 12 12 13 12 12 12 13 13 12 13 13 15 16 17 18 18 19 20 20
29 29 28 28 28 28 27 26 26 25 24 23 21 20 19 18 18 18 16 14 12 11 11 11 12 13 14 13 12 12 12 12 13 14 14 14 15 16 17 18 19 19 20 20
31 30 30 30 29 30 28 27 27 26 25 25 23 21 21 20 18 19 19 15 13 11 11 10 11 13 13 14 13 13 13 13 13 15 15 15 15 16 16 17 19 20 21 21
31 31 33 32 30 30 29 28 27 26 25 24 24 22 20 20 20 19 17 14 13 13 13 13 13 13 14 14 13 13 13 13 14 14 15 16 16 17 17 17 18 19 21 22
32 31 31 31 31 30 29 28 28 27 26 25 24 23 22 21 21 20 19 20 17 15 14 14 14 14 15 14 14 15 15 15 15 16 16 16 17 18 18 18 18 20 21 21
32 31 31 30 30 30 29 29 26 26 26 26 25 24 23 23 23 21 21 20 20 18 17 16 16 16 17 17 16 16 16 16 17 17 17 17 18 19 19 19 20 20 21 22
31 31 31 29 30 30 30 28 26 26 26 26 26 25 25 25 23 23 22 21 20 19 19 18 18 18 19 18 17 17 18 18 18 18 18 19 19 19 20 20 20 20 20 21
30 30 30 28 28 29 29 27 27 27 26 25 25 24 25 25 24 23 23 22 22 21 20 20 20 20 20 20 19 19 19 19 19 19 20 21 21 21 21 21 21 21 22 22
29 28 27 27 26 26 26 26 26 25 26 25 24 24 24 25 25 25 25 24 22 21 21 21 21 21 22 22 21 21 21 21 22 22 23 23 23 22 22 22 23 23 24 24
27 26 26 26 27 26 25 25 25 25 25 25 25 25 24 24 24 25 25 23 22 22 22 22 22 22 22 23 23 22 22 23 24 25 25 24 24 24 24 24 24 24 25 25
25 24 24 24 24 23 23 23 23 23 24 25 24 25 24 24 23 23 23 23 23 22 22 22 22 22 23 24 23 24 24 24 25 26 26 26 26 26 26 26 26 26 27 28
24 22 21 20 21 21 21 21 21 22 23 22 21 22 22 21 20 20 21 21 21 21 21 21 22 23 23 23 23 24 24 25 25 26 26 27 27 26 27 27 28 28 29 29
21 19 19 20 19 21 21 21 21 22 22 22 21 20 20 20 19 19 19 19 20 21 21 21 22 23 23 23 23 24 24 25 26 26 26 28 28 28 28 29 29 30 30 30
20 19 18 18 18 18 19 18 18 19 19 20 20 20 19 19 18 18 18 19 19 19 19 20 21 21 22 22 23 23 24 25 26 26 27 28 28 29 29 29 30 30 31 31
19 19 19 18 16 15 17 17 17 17 17 18 18 18 18 18 18 17 17 18 18 18 18 18 19 20 21 21 22 23 24 24 24 25 26 27 27 27 28 28 30 30 30 31
17 17 16 16 15 14 14 15 16 16 16 15 15 16 16 16 17 16 16 17 17 17 17 18 18 19 19 19 20 21 22 22 22 23 24 24 25 26 27 27 29 30 30 31
15 15 14 14 14 13 13 14 14 14 15 15 15 15 15 14 14 14 14 14 15 15 15 16 16 17 17 18 19 20 21 21 22 22 23 24 25 26 27 27 28 29 30 30
13 13 13 13 13 12 12 12 12 12 12 12 13 13 13 14 14 14 13 13 13 14 14 15 15 16 17 18 19 20 21 21 22 22 23 24 25 26 27 28 29 30 31 32
13 13 13 12 12 12 12 12 11 11 11 12 12 12 12 13 13 13 13 13 14 14 14 15 15 15 16 16 17 18 19 19 20 21 23 24 26 27 28 29 30 31 32 32
13 13 12 12 12 11 11 10 10 10 10 12 12 12 12 12 12 12 12 13 13 13 13 14 14 14 15 16 17 18 18 19 21 22 23 24 26 27 28 29 30 31 32 33
12 12 12 12 11 10 10 10 10 10 10 10 10 10 11 11 11 11 11 11 12 12 12 13 14 15 16 16 17 18 19 20 21 22 24 25 26 27 28 30 31 31 32 32
12 12 11 11 10 9 10 10 9 9 9 9 9 10 11 11 11 11 12 12 12 12 13 14 15 16 16 17 18 20 20 21 22 23 25 26 27 28 29 30 30 31 31 31
12 12 11 11 10 10 9 10 10 10 10 10 9 10 10 11 12 13 13 13 13 14 15 16 17 18 19 20 21 22 22 23 24 25 26 27 27 28 28 29 30 30 31 32
12 12 11 11 10 10 9 9 9 9 9 9 9 10 10 10 11 12 13 14 15 16 17 18 19 20 21 22 23 23 24 25 25 25 26 26 27 27 28 28 28 29 29 30
10 11 12 11 11 10 10 10 10 10 10 10 10 11 11 12 13 14 15 16 17 17 18 19 20 21 22 23 24 24 25 26 26 25 25 25 26 26 26 27 28 28 29 30
10 10 11 11 11 11 11 10 11 11 11 12 13 13 14 14 15 15 16 17 18 19 19 20 21 22 23 23 24 24 25 25 25 25 25 25 26 27 27 28 29 30 31 31
9 10 10 10 10 10 11 11 11 11 12 12 13 14 14 15 15 16 17 17 18 20 21 22 22 23 23 23 24 24 24 25 25 25 26 26 27 28 29 29 30 30 31 31
Wind_Direction
213 215 219 221 224 228 230 234 239 244 248 255 263 265 265 268 273 276 274 277 273 267 265 257 248 246 244 239 241 241 240 234 223 220 220 219 219 220 217 215 217 221 221 222
216 219 222 223 227 231 233 235 240 245 249 255 261 265 267 271 275 276 274 275 265 268 272 256 246 243 241 239 239 241 241 240 230 222 222 222 222 222 220 220 221 222 222 224
219 221 226 228 230 232 235 239 243 247 252 256 262 266 267 270 273 279 275 267 266 270 266 265 258 249 243 241 243 243 242 240 237 229 224 224 223 224 225 227 228 228 228 230
222 225 229 230 233 235 237 241 244 247 250 257 259 261 264 268 270 273 272 271 264 263 263 262 259 251 244 243 245 241 241 240 236 230 228 227 227 229 230 231 231 232 234 236
222 227 230 231 233 236 238 240 244 247 250 254 257 261 263 265 268 274 275 273 270 265 262 261 254 250 247 244 243 243 243 238 234 233 232 232 232 232 232 233 235 236 237 239
224 227 230 231 234 236 239 244 245 247 250 254 257 261 263 265 270 273 275 272 270 269 263 257 254 252 251 249 245 240 239 237 236 236 236 235 236 235 235 238 240 240 241 243
224 228 232 234 236 238 240 244 247 250 253 255 257 261 264 267 267 269 271 271 269 264 258 256 253 252 252 253 248 242 242 240 237 238 238 238 241 242 241 244 245 246 246 247
224 228 233 233 237 239 242 245 249 253 255 257 259 262 265 266 267 269 270 268 266 262 258 256 253 251 249 251 249 247 246 245 242 242 242 242 243 245 244 247 248 251 251 250
227 230 232 234 237 239 244 248 250 251 254 257 261 265 266 267 267 267 268 266 262 261 258 257 254 252 250 251 251 250 248 248 248 247 248 247 247 247 249 251 252 253 253 251
230 231 231 234 238 240 245 249 252 255 258 261 264 266 269 269 267 265 264 261 259 258 258 256 254 253 250 250 251 250 250 251 251 251 251 251 253 252 251 254 254 255 256 255
231 232 232 234 236 239 244 250 255 256 259 262 264 264 265 266 266 263 261 258 258 258 258 257 255 252 250 249 250 250 252 252 252 251 250 251 254 254 254 255 254 256 257 258
233 230 228 233 237 239 242 248 251 255 261 263 265 266 263 264 264 261 259 256 255 255 255 255 254 253 252 251 250 252 252 253 253 254 254 253 253 253 254 256 257 257 259 261
230 232 234 238 245 244 244 248 253 257 261 263 265 265 263 262 261 260 259 256 254 254 255 255 255 254 253 252 253 253 254 254 254 255 256 254 255 256 256 256 258 259 260 262
231 233 239 242 244 245 248 252 255 257 260 262 262 261 261 261 259 257 256 257 256 256 255 255 256 256 256 255 255 255 255 255 256 256 257 256 255 256 258 258 260 261 262 262
227 230 235 237 239 245 249 252 254 257 259 259 258 258 258 257 257 257 257 257 255 256 257 258 258 259 259 257 256 256 256 256 257 257 256 257 258 259 260 261 263 263 264 265
223 225 229 235 242 246 248 250 252 254 256 255 254 256 257 257 257 257 258 258 256 257 260 260 260 261 260 259 259 258 258 258 257 258 258 259 260 261 262 264 266 267 268 270
222 226 229 234 240 242 245 247 250 252 252 250 250 253 255 254 252 252 254 256 257 259 261 263 263 264 263 262 261 260 260 261 262 260 259 260 262 263 264 266 269 271 272 273
223 224 228 233 233 235 237 241 245 248 248 248 248 249 251 251 250 249 251 254 257 260 261 264 265 266 266 264 264 263 263 262 263 262 262 264 265 266 266 268 270 272 274 275
221 223 224 228 231 233 235 237 241 243 244 245 247 251 251 249 250 251 252 256 260 262 262 264 264 267 270 272 270 268 266 265 266 267 269 270 269 269 270 273 275 276 276 276
220 223 223 225 228 230 232 236 243 247 246 245 246 248 250 251 251 251 255 258 262 265 266 267 266 268 271 273 273 274 274 273 272 273 274 275 275 276 277 277 279 280 278 276
216 220 221 225 226 229 234 239 242 244 244 245 246 247 250 252 253 256 259 263 267 269 270 271 271 273 274 276 277 277 278 278 278 277 277 277 278 279 279 280 281 281 280 280
215 217 221 225 228 232 234 236 238 240 243 247 252 254 253 255 259 261 261 264 267 270 272 274 276 278 280 281 282 282 281 282 282 281 282 282 282 283 283 284 284 284 284 284
212 215 220 227 230 231 235 239 242 245 248 251 254 257 260 261 263 265 266 268 269 270 273 277 280 281 283 284 285 285 285 285 285 284 284 285 284 284 285 285 285 285 285 286
211 216 221 226 229 230 235 238 240 245 249 251 254 257 261 266 268 269 273 276 277 279 281 282 284 284 285 287 287 287 288 288 288 288 288 287 286 286 286 286 286 286 287 288
210 216 222 226 226 232 239 240 243 248 252 258 264 266 268 271 273 275 280 283 284 284 285 286 287 288 288 289 289 289 290 290 290 289 289 289 289 289 289 289 290 290 290 291
209 217 220 223 230 233 237 242 246 253 261 265 268 270 271 271 273 277 281 283 284 286 288 289 290 290 291 291 290 290 291 291 291 290 290 290 290 290 290 290 291 292 293 293
212 216 220 225 230 234 238 244 247 251 257 263 268 270 271 275 278 280 282 284 287 289 290 290 290 291 291 291 291 291 291 291 291 291 291 291 292 293 293 293 294 294 295 296
Height
5779 5782 5785 5788 5790 5792 5795 5797 5799 5801 5803 5805 5805 5806 5807 5808 5810 5810 5810 5810 5811 5810 5810 5810 5811 5812 5812 5813 5814 5815 5815 5816 5816 5818 5819 5821 5823 5825 5827 5829 5832 5834 5836 5838
5774 5777 5780 5784 5786 5789 5790 5792 5794 5797 5799 5800 5800 5801 5803 5804 5805 5806 5806 5805 5806 5807 5806 5806 5806 5807 5808 5808 5810 5811 5812 5813 5814 5815 5817 5819 5821 5823 5824 5826 5828 5830 5832 5834
5768 5772 5776 5779 5781 5784 5786 5788 5791 5793 5795 5795 5796 5797 5798 5800 5801 5801 5801 5800 5801 5802 5803 5803 5803 5804 5805 5805 5807 5808 5809 5810 5811 5812 5814 5816 5818 5820 5822 5823 5825 5827 5828 5830
5763 5768 5770 5776 5776 5778 5781 5783 5785 5788 5789 5790 5791 5793 5794 5795 5796 5797 5796 5796 5797 5798 5799 5799 5799 5800 5801 5802 5804 5805 5806 5807 5808 5810 5811 5813 5815 5817 5818 5820 5821 5823 5824 5825
5757 5761 5764 5768 5770 5773 5776 5778 5780 5782 5784 5785 5787 5788 5789 5790 5791 5792 5793 5793 5793 5794 5794 5794 5795 5796 5797 5799 5800 5801 5802 5804 5805 5806 5808 5810 5812 5813 5814 5816 5817 5818 5819 5820
5751 5755 5758 5763 5765 5767 5771 5772 5775 5777 5779 5781 5782 5784 5785 5785 5785 5786 5787 5787 5788 5790 5790 5791 5791 5792 5793 5794 5795 5797 5798 5800 5801 5802 5804 5806 5807 5809 5810 5811 5812 5813 5814 5815
5745 5749 5752 5756 5759 5762 5766 5767 5769 5771 5773 5775 5776 5778 5779 5778 5779 5780 5780 5781 5782 5783 5784 5785 5786 5787 5788 5790 5791 5792 5794 5795 5796 5798 5800 5801 5803 5804 5805 5806 5807 5808 5809 5810
5739 5743 5748 5750 5753 5757 5759 5761 5763 5765 5766 5768 5769 5770 5771 5772 5772 5773 5774 5774 5775 5775 5777 5779 5780 5782 5783 5785 5786 5787 5789 5790 5792 5793 5795 5796 5797 5798 5800 5800 5801 5802 5803 5804
5735 5739 5741 5744 5747 5750 5752 5754 5756 5758 5760 5762 5763 5764 5764 5764 5764 5765 5766 5767 5768 5769 5771 5772 5774 5776 5777 5779 5780 5782 5783 5785 5786 5787 5789 5790 5791 5792 5793 5794 5795 5796 5796 5797
5728 5731 5735 5738 5741 5744 5746 5749 5750 5752 5754 5755 5756 5756 5757 5756 5756 5758 5759 5760 5762 5763 5765 5766 5768 5769 5771 5773 5774 5776 5777 5778 5780 5781 5782 5783 5785 5786 5787 5788 5788 5789 5790 5790
5723 5726 5729 5732 5735 5739 5741 5743 5744 5745 5747 5748 5749 5749 5750 5750 5751 5751 5752 5754 5755 5756 5758 5759 5761 5762 5764 5766 5767 5769 5770 5771 5773 5774 5775 5776 5777 5778 5779 5781 5781 5782 5782 5783
5718 5721 5724 5727 5730 5733 5735 5737 5738 5739 5740 5741 5742 5742 5743 5744 5745 5745 5746 5747 5748 5749 5751 5753 5754 5755 5756 5758 5760 5762 5763 5764 5765 5767 5767 5768 5769 5770 5771 5772 5773 5773 5774 5774
5713 5716 5719 5722 5725 5727 5729 5730 5732 5733 5734 5735 5736 5736 5737 5738 5739 5740 5740 5741 5743 5744 5745 5746 5747 5749 5750 5752 5753 5755 5756 5757 5758 5759 5760 5760 5761 5762 5763 5764 5764 5765 5765 5765
5709 5712 5715 5717 5720 5722 5723 5725 5726 5727 5728 5729 5730 5730 5731 5732 5733 5734 5735 5736 5737 5738 5739 5740 5741 5742 5743 5745 5746 5747 5748 5749 5750 5751 5751 5752 5753 5753 5754 5754 5755 5755 5756 5756
5704 5707 5711 5713 5715 5717 5718 5720 5721 5722 5723 5723 5724 5725 5726 5727 5728 5729 5730 5730 5732 5733 5734 5735 5736 5736 5737 5738 5739 5740 5741 5742 5742 5743 5744 5744 5745 5745 5746 5746 5746 5747 5746 5746
5699 5703 5706 5709 5711 5712 5714 5715 5716 5717 5718 5718 5719 5720 5721 5722 5723 5723 5725 5725 5727 5728 5729 5729 5730 5731 5732 5732 5733 5734 5735 5735 5736 5736 5737 5737 5737 5737 5737 5738 5738 5738 5737 5737
5696 5699 5702 5704 5706 5708 5709 5710 5711 5712 5713 5714 5715 5716 5717 5717 5718 5719 5720 5721 5722 5723 5724 5725 5725 5726 5726 5727 5728 5728 5729 5729 5729 5729 5729 5730 5730 5730 5730 5729 5729 5729 5728 5727
5693 5695 5698 5700 5702 5704 5705 5706 5707 5707 5708 5710 5711 5711 5712 5713 5714 5715 5716 5717 5718 5719 5719 5720 5720 5721 5721 5721 5722 5722 5722 5722 5722 5722 5722 5722 5722 5722 5722 5721 5720 5719 5718 5717
5690 5692 5695 5697 5699 5700 5701 5702 5703 5704 5705 5706 5707 5707 5708 5709 5710 5711 5712 5713 5714 5714 5715 5715 5715 5716 5716 5716 5716 5715 5715 5715 5715 5715 5715 5714 5714 5713 5713 5712 5711 5710 5708 5706
5687 5689 5691 5693 5695 5696 5697 5698 5700 5700 5701 5702 5703 5704 5705 5706 5707 5707 5708 5709 5709 5710 5710 5710 5711 5711 5711 5711 5710 5710 5709 5708 5708 5708 5708 5707 5706 5705 5704 5703 5701 5700 5698 5696
5684 5686 5688 5690 5691 5693 5694 5695 5696 5697 5698 5699 5700 5701 5702 5702 5703 5704 5705 5705 5706 5706 5706 5706 5706 5706 5706 5706 5705 5704 5703 5703 5702 5701 5700 5699 5697 5696 5695 5693 5691 5690 5688 5686
5681 5683 5685 5687 5688 5690 5691 5692 5693 5694 5696 5696 5697 5698 5698 5699 5700 5700 5701 5701 5702 5702 5702 5701 5701 5701 5700 5700 5699 5698 5697 5696 5694 5693 5692 5690 5689 5687 5685 5684 5682 5680 5678 5676
5678 5680 5682 5684 5686 5687 5688 5690 5691 5692 5693 5693 5694 5694 5695 5695 5696 5697 5697 5697 5697 5697 5697 5696 5695 5695 5694 5693 5692 5691 5690 5688 5687 5685 5683 5681 5679 5678 5676 5674 5672 5670 5668 5665
5675 5678 5680 5682 5683 5684 5686 5687 5688 5689 5689 5690 5691 5691 5692 5692 5692 5692 5692 5692 5692 5691 5691 5690 5689 5688 5687 5686 5685 5683 5682 5680 5678 5676 5674 5672 5670 5668 5666 5664 5662 5660 5657 5655
5673 5675 5677 5679 5681 5682 5683 5684 5685 5686 5687 5687 5688 5688 5688 5688 5688 5688 5688 5687 5686 5685 5685 5684 5683 5682 5680 5678 5677 5675 5673 5671 5669 5667 5665 5663 5661 5659 5657 5655 5653 5650 5648 5645
5672 5673 5675 5677 5678 5679 5680 5681 5682 5683 5684 5684 5684 5684 5684 5684 5683 5683 5682 5681 5680 5679 5678 5677 5676 5674 5673 5671 5669 5667 5665 5663 5661 5659 5657 5655 5653 5650 5648 5646 5643 5640 5638 5635
5670 5671 5673 5674 5675 5676 5677 5678 5679 5679 5680 5680 5680 5680 5679 5679 5678 5677 5676 5675 5674 5673 5672 5670 5668 5667 5665 5663 5661 5659 5657 5655 5653 5651 5649 5646 5644 5642 5639 5636 5634 5631 5628 5625